Orbital Elements at Epoch 2459000.5 (2020-May-31.0) TDB
Reference: JPL 24 (heliocentric ecliptic J2000)
Element | Value | Uncertainty (1-sigma) | Units |
e | .1680950408256411 | 6.483e-08 | |
a | 2.415443077907697 | 9.314e-09 | au |
q | 2.009419075114791 | 1.5549e-07 | au |
i | 11.28543735106827 | 5.7188e-06 | deg |
node | 16.05646489504898 | 1.6323e-05 | deg |
peri | 350.6808329667355 | 1.9114e-05 | deg |
M | 189.1230570441577 | 1.0685e-05 | deg |
tp | 2459651.340549315136 (2022-Mar-12.84054932) | 4.2821e-05 | TDB |
period | 1371.17737302918 3.75 | 7.9309e-06 2.171e-08 | d yr |
n | .262548089752017 | 1.5186e-09 | deg/d |
Q | 2.821467080700604 | 1.088e-08 | au |
|
| | Orbit Determination Parameters
Additional Information
|